This is the latest recevied weather packets stored in our database for station/object IN3MWE-10. If no packets are shown the sender has not sent any weather packets the latest 10 day(s).
| Time | Temp. | Humidity | Pressure | Rain* | Wind** | Luminosity | Snow |
|---|---|---|---|---|---|---|---|
| 1788667515 | 18.89° C | 71% | 987.2 hPa | - | - | - | - |
| 1788666615 | 19.44° C | 67% | 987.2 hPa | - | - | - | - |
| 1788665715 | 18.89° C | 69% | 987.1 hPa | - | - | - | - |
| 1788664814 | 19.44° C | 67% | 986.8 hPa | - | - | - | - |
| 1788663913 | 19.44° C | 63% | 986.8 hPa | - | - | - | - |
| 1788663028 | 18.89° C | 70% | 986.8 hPa | - | - | - | - |
| 1788662128 | 18.89° C | 70% | 986.8 hPa | - | - | - | - |
| 1788661228 | 20° C | 65% | 986.6 hPa | - | - | - | - |
| 1788660328 | 20° C | 64% | 986.3 hPa | - | - | - | - |
| 1788659428 | 20° C | 67% | 986.3 hPa | - | - | - | - |
| 1788658527 | 20° C | 65% | 986.2 hPa | - | - | - | - |
| 1788657627 | 20° C | 66% | 986.2 hPa | - | - | - | - |
| 1788656727 | 20° C | 68% | 986.1 hPa | - | - | - | - |
| 1788655827 | 19.44° C | 70% | 986 hPa | - | - | - | - |
| 1788654927 | 20.56° C | 66% | 985.9 hPa | - | - | - | - |
| 1788654027 | 20.56° C | 66% | 985.9 hPa | - | - | - | - |
| 1788653127 | 20° C | 66% | 985.9 hPa | - | - | - | - |
| 1788652226 | 21.11° C | 63% | 985.8 hPa | - | - | - | - |
| 1788651326 | 21.11° C | 63% | 985.7 hPa | - | - | - | - |
| 1788650426 | 21.67° C | 57% | 985.6 hPa | - | - | - | - |
| 1788649526 | 21.67° C | 60% | 985.5 hPa | - | - | - | - |
| 1788648626 | 21.67° C | 63% | 985.4 hPa | - | - | - | - |
| 1788647726 | 21.67° C | 60% | 985.1 hPa | - | - | - | - |
| 1788646825 | 21.67° C | 59% | 985.1 hPa | - | - | - | - |
| 1788645925 | 21.67° C | 63% | 985 hPa | - | - | - | - |
* Rain since midnight (hover to see other rain measurements)
** Current wind speed in m/s (hover to see current wind gust speed)